Probability
0 0 0 0 0 0 0 0 0 0 0 0 0 0 0 0 0 0 0 0 0 0 0 0 0 0 0 0 0 0 0 0 0 0 0 0 0 0 0 0 0 0 0
0 0 0 0 0 0 0 0 0 0 0 0 0 0 0 0 0 0 0 0 0 0 0 0 0 0 0 0 0 0 0 0 0 0 0 0 0 0 0 0 0 0 0
0 0 0 0 0 0 0 0 0 0 0 0 0 0 0 0 0 0 0 0 0 0 0 0 0 0 0 0 0 0 0 0 0 0 0 0 0 0 0 0 0 0 0
0 0 0 0 0 0 0 0 0 0 0 0 0 0 0 0 0 0 0 0 0 0 0 0 0 0 0 0 0 0 0 0 0 0 0 0 0 0 0 0 0 0 0
0 0 0 0 0 0 0 0 0 0 0 0 0 0 0 0 0 0 0 0 0 0 0 0 0 0 0 0 0 0 0 0 0 0 0 0 0 0 0 0 0 0 0
0 0 0 0 0 0 0 0 0 0 0 0 0 0 0 0 0 0 0 0 0 0 0 0 0 0 0 0 0 0 0 0 0 0 0 0 0 0 0 0 0 0 0
0 0 0 0 0 0 0 0 0 0 0 0 0 0 0 0 0 0 0 0 0 0 0 0 0 0 0 0 0 0 0 0 0 0 0 0 0 0 0 0 0 0 0
0 0 0 0 0 0 0 0 0 0 0 0 0 0 0 0 0 0 0 0 0 0 0 0 0 0 0 0 0 0 0 0 0 0 0 0 0 0 0 0 0 0 0
0 0 0 0 0 0 0 0 0 0 0 0 0 0 0 0 0 0 0 0 0 0 0 0 0 0 0 0 0 0 0 0 0 0 0 0 0 0 0 0 0 0 0
0 0 0 0 0 0 0 0 0 0 0 0 0 0 0 0 0 0 0 0 0 0 0 0 0 0 0 0 0 0 0 0 0 0 0 0 0 0 0 0 0 0 0
0 0 0 0 0 0 0 0 0 0 0 0 0 0 0 0 0 0 0 0 0 0 0 0 0 0 0 0 0 0 0 0 0 0 0 0 0 0 0 0 0 0 0
0 0 0 0 0 0 0 0 0 0 0 0 0 0 0 0 0 0 0 0 0 0 0 0 0 0 0 0 0 0 0 0 0 0 0 0 0 0 0 0 0 0 0
0 0 0 0 0 0 0 0 0 0 0 0 0 0 0 0 0 0 0 0 0 0 0 0 0 0 0 0 0 0 0 0 0 0 0 0 0 0 0 0 0 0 0
0 0 0 0 0 0 0 0 0 0 0 0 0 0 0 0 0 0 0 0 0 0 0 0 0 0 0 0 0 0 0 0 0 0 0 0 0 0 0 0 0 0 0
0 0 0 0 0 0 0 0 0 0 0 0 0 0 0 0 0 0 0 0 0 0 0 0 0 0 0 0 0 0 0 0 0 0 0 0 0 0 0 0 0 0 0
0 0 0 0 0 0 0 0 0 0 0 0 0 0 0 0 0 0 0 0 0 0 0 0 0 0 0 0 0 0 0 0 0 0 0 0 0 0 0 0 0 0 0
0 0 0 0 0 0 0 0 0 0 0 0 0 0 0 0 0 0 0 0 0 0 0 0 0 0 0 0 0 0 0 0 0 0 0 0 0 0 0 0 0 0 0
0 0 0 0 0 0 0 0 0 0 0 0 0 0 0 0 0 0 0 0 0 0 0 0 0 0 0 0 0 0 0 0 0 0 0 0 0 0 0 0 0 0 0
0 0 0 0 0 0 0 0 0 0 0 0 0 0 0 0 0 0 0 0 0 0 0 0 0 0 0 0 0 0 0 0 0 0 0 0 0 0 0 0 0 0 0
0 0 0 0 0 0 0 0 0 0 0 0 0 0 0 0 0 0 0 0 0 0 0 0 0 0 0 0 0 0 0 0 0 0 0 0 0 0 0 0 0 0 0
0 0 0 0 0 0 0 0 0 0 0 0 0 0 0 0 0 0 0 0 0 0 0 0 0 0 0 0 0 0 0 0 0 0 0 0 0 0 0 0 0 0 0
0 0 0 0 0 0 0 0 0 0 0 0 0 0 0 0 0 0 0 0 0 0 0 0 0 0 0 0 0 0 0 0 0 0 0 0 0 0 0 0 0 0 0
0 0 0 0 0 0 0 0 0 0 0 0 0 0 0 0 0 0 0 0 0 0 0 0 0 0 0 0 0 0 0 0 0 0 0 0 0 0 0 0 0 0 0
0 0 0 0 0 0 0 0 0 0 0 0 0 0 0 0 0 0 0 0 0 0 0 0 0 0 0 0 0 0 0 0 0 0 0 0 0 0 0 0 0 0 0
0 0 0 0 0 0 0 0 0 0 0 0 0 0 0 0 0 0 0 0 0 0 0 0 0 0 0 0 0 0 0 0 0 0 0 0 0 0 0 0 0 0 0
0 0 0 0 0 0 0 0 0 0 0 0 0 0 0 0 0 0 0 0 0 0 0 0 0 0 0 0 0 0 0 0 0 0 0 0 0 0 0 0 0 0 0
Wind_Speed
4 4 4 4 4 4 4 5 5 5 6 6 6 6 6 6 6 5 6 6 6 6 5 5 6 6 5 4 4 4 5 5 8 6 4 4 4 5 4 4 4 5 5
4 4 5 5 5 5 5 5 5 5 5 6 6 6 6 6 6 6 7 6 6 7 6 6 7 5 6 5 4 5 5 5 7 8 5 4 5 5 4 4 4 4 5
4 4 5 5 5 5 5 5 5 5 5 6 5 6 6 7 6 6 6 7 7 7 7 7 7 6 7 5 5 5 5 5 6 6 7 4 4 3 4 4 4 4 5
4 4 5 5 5 5 5 5 5 5 5 6 6 6 6 7 7 6 6 6 7 7 7 7 7 7 7 7 6 6 5 5 6 6 6 5 4 3 3 3 5 4 5
4 4 5 5 5 5 5 6 6 5 5 5 6 6 6 6 6 7 7 7 7 8 7 7 7 7 9 8 6 6 5 5 5 5 6 6 5 3 4 3 5 5 5
4 4 5 5 5 5 6 6 6 6 6 6 6 6 7 6 9 11 10 7 8 8 8 8 8 7 8 10 11 10 8 7 7 6 6 7 7 6 4 4 4 5 5
4 5 5 5 6 6 6 6 6 7 7 7 7 7 7 9 12 13 12 9 8 8 8 8 7 7 7 7 8 9 9 10 10 8 9 9 8 7 6 6 6 6 7
5 5 5 6 6 6 6 6 7 6 6 7 7 8 8 9 13 13 13 9 8 8 8 8 8 8 7 7 7 8 8 7 8 7 8 9 8 6 6 7 7 7 6
5 6 6 6 7 7 7 7 7 7 7 7 7 8 8 9 12 13 13 7 7 8 8 8 8 8 10 10 8 8 8 7 7 8 10 10 10 9 7 4 4 4 6
6 6 6 6 7 8 8 8 7 7 8 8 8 7 8 9 12 13 13 6 8 8 8 7 8 9 12 12 8 8 9 8 6 6 7 7 7 6 7 5 5 5 4
6 6 6 6 7 8 8 7 7 7 8 8 9 8 8 8 11 13 13 7 7 8 8 7 7 12 14 13 11 8 10 8 5 5 5 5 4 3 4 4 4 4 5
6 6 7 7 6 6 7 7 7 7 8 8 8 9 6 6 8 11 13 12 11 9 8 7 8 13 14 14 10 9 10 8 4 4 4 4 4 4 3 4 4 4 5
6 6 7 7 6 6 6 7 7 6 6 7 7 7 7 6 7 12 13 14 14 9 8 12 13 13 12 9 9 10 7 4 4 4 5 5 4 4 4 3 3 3 4
6 7 7 7 7 6 6 5 6 6 6 7 7 7 8 7 6 6 7 8 9 9 7 8 11 11 9 7 6 5 4 4 4 4 5 4 4 3 3 2 3 3 3
6 7 7 6 6 6 6 6 7 7 7 9 7 7 8 9 10 14 12 8 7 7 7 5 4 4 4 4 4 4 3 3 3 4 4 4 4 4 3 2 2 2 3
6 6 5 5 5 6 6 7 10 11 14 15 14 12 9 13 17 17 17 16 15 12 6 4 5 4 4 4 4 4 4 3 3 3 4 4 4 4 3 3 2 2 3
6 6 5 5 6 6 6 6 8 9 12 13 14 15 14 16 17 17 16 15 11 8 4 4 5 5 5 4 4 4 4 4 3 3 3 4 3 3 3 3 3 2 2
6 6 6 6 6 6 6 6 6 7 8 8 9 14 15 16 16 15 14 9 5 4 3 4 5 5 4 4 4 4 4 4 3 3 3 3 3 3 3 3 3 3 3
5 5 5 5 5 6 6 6 6 7 7 8 7 8 11 13 13 12 10 4 4 4 4 4 4 4 4 4 4 4 4 4 4 3 3 3 3 3 3 3 3 3 3
5 7 6 5 5 5 5 5 6 6 6 6 7 6 6 6 5 6 5 4 4 4 4 4 4 4 4 4 4 4 4 4 4 3 3 3 3 3 3 3 3 3 3
4 5 6 5 5 5 5 6 6 6 6 6 6 7 10 5 5 5 5 4 4 5 5 4 4 4 4 3 3 4 4 4 4 3 3 3 3 3 3 3 3 3 3
4 4 4 5 5 5 6 6 5 6 6 7 6 7 10 5 4 4 5 5 4 4 4 4 4 4 4 4 4 4 4 4 4 3 3 3 3 3 3 3 3 3 3
4 5 5 5 5 6 6 5 5 5 6 6 5 5 5 4 4 5 5 5 5 4 4 4 4 4 4 4 3 4 4 5 4 4 4 3 3 3 3 3 3 3 3
4 5 5 5 5 5 5 5 5 5 5 5 5 5 5 5 5 5 5 5 5 4 4 4 4 6 7 5 4 4 4 5 4 4 5 4 4 3 3 3 3 4 4
4 4 5 4 4 5 5 5 5 5 5 5 5 5 5 5 5 5 5 5 5 5 6 5 4 5 7 7 6 5 6 7 6 4 3 3 4 4 4 4 4 3 3
4 4 4 4 4 4 5 5 5 5 5 5 5 5 5 5 5 5 5 5 5 5 6 5 6 7 8 7 7 8 8 7 7 6 4 3 3 4 4 3 4 4 4
Wind_Direction
338 336 338 335 332 334 333 331 327 328 329 328 325 319 317 315 311 306 299 300 297 296 294 287 285 285 280 277 272 261 256 257 267 277 280 285 277 275 284 278 277 272 274
334 336 336 336 338 339 334 331 330 328 326 324 322 320 320 318 313 307 304 302 297 296 295 294 291 290 280 277 274 269 262 255 259 272 279 276 270 268 271 272 276 277 273
334 336 335 335 336 334 329 326 325 322 321 322 321 318 316 314 312 308 304 303 297 293 292 291 290 290 285 283 279 276 278 278 265 264 270 271 267 270 278 282 277 273 277
332 333 329 326 326 323 322 322 320 320 319 317 315 311 309 309 307 306 305 300 297 295 293 290 288 284 281 283 280 279 282 283 280 272 270 272 272 275 270 274 284 276 279
327 325 316 313 317 319 320 319 317 317 313 310 311 311 309 307 304 306 304 301 300 298 294 290 289 284 281 280 278 278 279 279 280 276 276 281 274 280 271 273 273 280 276
315 311 311 313 316 316 314 315 315 313 312 312 308 307 307 305 307 308 306 300 299 296 295 294 290 284 282 282 279 275 269 268 272 274 275 274 278 279 280 274 279 284 278
314 314 318 317 315 314 313 315 312 311 311 309 306 305 303 303 309 311 310 303 295 292 291 291 291 291 286 287 288 286 279 274 267 267 270 271 274 274 274 271 268 272 274
313 313 317 317 313 313 314 311 310 309 307 304 305 304 302 302 309 312 314 305 294 290 289 288 286 289 289 291 291 287 283 280 277 274 271 274 276 277 271 269 270 278 285
314 315 316 313 309 310 309 306 305 305 302 300 300 300 300 302 308 311 314 306 298 294 292 290 288 286 289 292 288 285 286 288 292 286 285 285 286 285 282 278 271 273 279
306 306 306 305 302 302 301 301 301 300 297 299 297 296 294 297 303 308 311 302 300 299 295 292 287 286 290 289 282 278 278 283 293 299 297 297 293 289 290 275 265 263 275
304 305 305 303 299 296 296 297 299 298 298 296 295 295 293 294 299 304 306 301 297 299 296 295 293 294 293 290 285 278 277 287 288 285 289 293 297 294 293 292 286 270 263
306 304 303 302 299 297 296 297 298 296 295 294 296 297 295 297 298 301 304 302 300 295 292 294 294 296 295 294 288 283 285 289 282 280 281 286 290 291 293 296 295 292 283
303 298 297 299 297 297 295 296 297 294 290 293 295 296 300 301 301 305 305 304 301 296 290 294 296 297 299 296 289 290 290 281 277 275 274 279 283 287 295 303 311 314 311
294 296 299 300 300 300 295 290 289 289 289 290 292 295 298 300 301 304 302 302 301 299 298 299 303 302 301 301 301 298 288 276 271 271 277 282 287 286 285 296 304 312 316
294 295 299 297 297 298 293 285 286 278 278 288 287 290 294 297 298 304 306 301 300 294 304 303 302 304 302 304 305 300 292 286 280 276 274 279 284 285 288 297 295 297 289
293 298 297 297 295 295 297 298 291 291 296 294 292 293 291 293 303 305 304 303 303 304 306 292 291 291 290 292 295 298 293 284 283 280 273 271 274 278 285 292 289 279 283
278 288 291 291 291 292 293 295 301 304 300 300 301 302 301 304 305 307 307 308 307 311 298 288 286 285 285 285 283 285 287 284 277 270 273 276 275 273 274 277 279 281 280
275 278 280 282 285 286 285 285 287 294 303 301 303 304 308 310 312 312 314 319 316 322 299 291 289 287 284 283 281 282 286 289 283 277 272 272 272 269 266 265 265 267 273
276 277 279 282 283 283 283 284 283 283 286 292 301 306 310 312 315 316 323 319 307 305 303 298 295 295 293 288 282 279 276 277 276 274 267 262 261 263 266 266 266 266 266
273 279 284 285 286 286 284 283 284 285 287 290 292 299 310 316 315 317 320 314 306 299 298 296 296 295 295 293 293 288 278 271 269 266 264 260 257 256 258 263 264 267 267
278 283 286 285 280 281 283 282 283 285 286 288 290 296 307 308 301 303 305 304 300 299 299 297 295 294 293 293 291 290 287 278 270 264 260 255 250 250 251 251 253 256 259
273 279 281 280 281 282 282 281 281 282 284 287 296 305 309 309 299 299 299 298 297 295 294 293 292 291 289 288 286 283 283 284 275 261 255 253 248 244 244 245 246 250 244
272 279 281 279 278 282 285 282 281 281 284 287 292 298 303 299 296 295 296 298 299 299 302 299 295 296 298 294 285 274 272 274 274 263 248 246 244 240 237 239 240 244 243
268 272 278 281 283 282 284 287 285 284 286 290 292 292 293 294 294 294 296 298 300 300 300 297 294 295 297 300 297 289 280 280 279 271 252 237 238 239 236 238 240 239 241
267 271 274 276 279 282 284 285 285 286 286 287 288 289 291 292 294 295 297 298 299 299 300 298 295 298 299 297 295 293 289 290 289 280 264 242 233 234 232 233 235 235 239
268 271 272 272 273 275 277 281 283 285 285 286 285 285 287 289 291 293 296 297 299 299 300 299 298 297 298 299 296 295 293 289 284 276 264 242 231 234 229 231 230 230 233